Theta_e
310 310 310 310 310 310 310 310 310 310 311 311 312 312 311 311 310 310 312 311 312 313 314 313 314 314 316 318 316 315 321 320 319 319 317 317 317 315 314 316 315 316 317 316 311
310 310 310 309 309 309 309 309 308 308 308 308 309 311 311 311 311 314 313 311 312 313 313 314 315 315 318 318 319 320 321 318 318 317 316 316 316 317 316 317 317 317 316 312 311
311 310 310 311 312 312 312 312 312 310 309 308 307 306 310 311 314 312 314 311 312 313 313 312 314 316 317 318 319 319 319 318 316 315 314 315 316 315 316 316 317 317 316 317 312
313 313 314 315 315 315 316 316 315 315 313 310 309 306 307 311 314 309 314 313 312 313 312 313 315 317 318 318 318 318 318 317 317 315 316 316 316 316 316 316 316 317 316 316 315
313 315 316 317 318 318 319 318 317 317 316 315 310 307 309 311 313 311 312 313 313 312 313 315 315 316 317 316 315 317 317 317 316 315 316 316 316 317 316 316 316 315 315 314 315
314 315 317 318 319 320 320 318 319 318 317 316 313 307 309 310 308 310 312 313 313 312 312 313 314 315 314 314 315 314 314 315 314 315 315 314 315 313 315 315 314 314 314 314 314
315 317 318 319 320 321 320 319 319 318 316 313 311 307 309 313 309 310 313 314 313 312 312 311 311 314 314 314 313 313 314 315 314 313 314 313 314 314 315 314 313 313 313 314 313
316 317 319 320 321 321 321 320 318 313 312 309 308 308 310 307 308 309 311 311 312 311 310 310 310 313 313 312 313 313 312 314 314 311 312 313 315 315 314 311 313 314 314 314 314
317 318 320 321 321 321 321 320 316 312 311 307 309 308 311 308 309 309 310 310 309 309 309 309 311 312 312 313 314 313 314 314 313 311 312 314 315 314 313 312 313 313 313 313 313
319 320 320 321 321 321 322 319 313 311 313 312 311 310 309 310 310 309 309 308 309 310 311 312 312 313 311 313 317 318 316 314 313 314 311 311 312 312 312 312 312 313 313 313 312
319 320 320 321 321 322 322 314 316 317 311 314 313 311 309 309 310 308 307 309 309 311 313 310 313 314 315 314 314 312 313 313 313 313 312 312 313 312 312 312 312 313 313 313 313
320 320 322 322 322 322 317 311 309 308 316 312 311 309 308 308 312 309 308 312 312 314 310 311 313 313 311 310 311 312 313 314 314 312 309 313 313 313 313 313 313 313 313 313 313
320 321 321 322 322 320 314 311 308 308 314 315 310 311 310 309 314 313 309 310 312 312 312 316 316 311 310 311 311 312 312 314 314 312 312 311 316 315 314 312 312 311 311 312 312
321 321 321 321 321 319 313 313 309 308 322 320 311 309 308 307 309 306 306 309 310 314 312 312 311 310 310 311 312 314 313 311 311 312 316 311 318 316 315 315 313 312 312 312 312
323 323 322 321 321 320 315 314 309 306 331 312 308 308 308 308 308 307 305 308 311 310 311 314 310 310 312 312 310 313 309 310 310 312 311 314 314 318 313 315 314 313 312 312 312
323 322 322 321 321 321 319 317 312 322 331 318 308 310 311 309 308 307 308 307 307 309 309 310 306 309 311 308 309 308 310 310 310 311 316 317 315 317 315 313 312 313 313 314 309
319 320 321 320 321 320 320 318 326 330 320 316 310 310 309 310 310 309 311 311 313 315 316 312 310 309 307 310 308 309 312 318 322 321 321 314 314 315 315 315 311 312 310 307 306
317 318 318 320 320 319 318 320 323 322 322 318 315 310 316 313 314 310 310 314 310 310 314 318 320 311 309 312 316 312 315 320 326 323 322 317 316 315 314 311 310 308 305 305 304
309 311 312 317 318 316 319 324 323 321 321 321 318 320 319 314 313 312 312 315 312 309 316 319 319 308 306 308 311 312 313 313 315 317 319 314 314 315 315 310 308 308 308 306 303
306 306 308 311 316 316 319 321 320 316 315 317 319 319 320 319 317 313 316 312 311 309 307 313 316 314 309 306 307 310 310 315 313 316 320 314 314 315 314 313 309 307 305 302 301
304 309 306 312 315 316 319 316 315 316 317 319 319 320 317 318 317 319 319 315 312 309 307 311 316 317 313 315 315 313 310 309 310 314 318 320 317 313 313 310 306 304 302 300 298
304 308 306 313 314 314 313 312 310 312 312 314 314 316 317 315 315 316 315 313 312 308 315 313 315 318 315 313 312 312 314 314 319 319 316 316 316 312 312 306 301 300 299 296 294
307 306 307 311 313 312 310 310 310 310 309 310 313 313 312 312 313 313 312 311 309 312 314 313 316 317 318 314 310 312 313 312 314 314 317 317 316 311 307 304 299 299 296 295 294
303 304 305 308 309 309 309 309 309 308 310 310 310 310 310 311 310 310 310 311 307 306 305 308 310 315 317 314 311 312 314 311 308 310 311 311 309 306 304 299 297 295 294 293 293
299 300 301 307 307 308 306 306 307 307 306 305 306 307 307 308 308 309 306 303 303 300 300 304 308 308 307 304 302 304 304 303 303 303 304 303 302 302 298 295 294 293 291 290 292
298 299 299 299 300 303 305 305 305 305 304 304 304 302 302 305 305 305 301 301 302 299 299 299 302 300 300 300 300 300 300 299 298 298 298 299 299 294 293 293 292 291 290 290 291
292 293 296 296 298 300 300 301 301 301 296 298 298 298 298 299 299 297 297 296 297 297 297 297 298 299 300 298 294 295 296 296 296 296 295 294 295 291 289 289 289 290 290 290 291
Wind_Speed
4 5 5 5 6 6 6 7 8 8 7 7 7 9 11 12 14 9 7 6 7 12 11 13 6 4 3 3 2 1 4 5 4 5 2 3 4 3 2 8 5 8 6 2 4
5 6 6 7 8 8 9 9 10 11 11 11 10 10 11 15 13 11 10 7 7 16 14 14 8 7 3 3 3 4 4 5 4 5 5 4 6 7 6 12 14 14 15 12 7
5 6 6 7 7 9 10 11 12 13 13 13 11 10 10 12 5 2 2 7 9 16 11 8 9 4 4 3 6 4 6 6 6 11 7 6 7 5 10 13 14 14 12 9 14
5 6 6 6 7 9 11 12 12 13 14 14 12 9 7 3 6 2 3 8 12 15 11 9 7 5 5 7 5 6 13 10 4 3 4 7 5 9 14 23 22 19 18 14 14
4 5 7 7 8 9 11 13 14 15 15 14 12 7 2 3 7 6 4 8 14 15 10 7 7 5 7 4 4 9 10 8 9 8 11 11 17 16 19 23 23 19 17 18 16
4 5 6 7 8 10 13 14 15 16 15 15 11 5 2 8 5 6 5 11 13 14 9 7 5 4 3 4 8 3 7 12 10 13 12 10 21 2 13 12 12 13 16 15 15
5 5 6 7 9 11 14 15 16 15 13 13 8 4 4 12 4 4 5 7 11 12 6 7 4 5 3 3 3 5 12 15 13 7 8 5 11 14 21 10 16 17 14 13 15
6 6 6 7 10 11 15 16 16 12 11 7 3 5 6 4 3 6 8 4 7 8 5 3 6 2 3 1 3 6 4 9 2 7 2 6 17 18 11 6 14 19 22 23 23
6 7 8 9 11 13 16 17 13 8 7 5 3 3 6 1 2 4 7 4 7 5 4 7 4 1 2 5 7 5 11 12 10 7 3 9 13 10 10 16 26 24 23 21 21
7 7 8 10 12 15 16 16 6 5 2 3 3 2 4 1 3 3 6 12 3 7 4 2 1 5 3 7 11 14 11 10 10 9 8 12 22 21 24 18 26 25 24 17 17
8 8 9 10 12 15 15 4 2 2 1 5 2 4 2 2 5 2 4 5 5 3 7 2 7 11 17 17 15 10 14 19 19 19 20 19 18 18 23 21 24 24 19 14 13
10 10 9 10 12 14 7 3 1 1 8 9 12 8 2 1 2 3 9 8 6 7 6 4 11 16 5 5 10 14 16 19 16 10 4 18 23 23 22 23 22 17 14 11 11
12 11 11 10 12 6 2 3 1 0 4 6 2 2 0 6 6 5 8 5 5 8 12 18 10 2 9 13 13 11 13 17 19 13 14 14 15 4 6 7 12 8 9 10 9
15 14 12 9 7 1 2 2 1 1 5 3 2 1 2 2 1 2 1 1 3 8 7 10 4 7 4 9 11 15 11 14 12 6 9 9 13 7 11 13 11 3 2 5 5
19 18 15 11 3 2 3 1 2 1 6 3 2 1 1 1 3 3 1 1 4 4 4 3 3 3 6 7 10 4 2 1 2 8 9 5 7 3 5 11 6 3 7 6 8
20 18 16 13 9 3 3 1 1 1 7 1 2 2 3 1 2 2 1 3 2 5 5 11 1 4 3 2 5 2 2 2 1 4 7 5 7 5 4 2 2 11 13 15 20
8 9 11 6 6 8 6 2 2 5 3 1 1 2 1 4 5 7 5 5 4 7 9 3 6 3 4 5 3 4 4 5 6 5 10 4 10 7 10 12 8 16 19 22 22
6 10 12 12 11 12 9 3 4 2 3 2 1 2 4 2 5 3 3 6 8 4 4 8 12 9 8 8 6 8 8 7 6 12 20 12 17 7 3 7 13 17 16 16 18
4 1 3 8 10 13 2 4 5 7 7 4 2 12 16 3 3 4 7 10 5 12 7 5 12 1 5 2 5 5 6 5 8 14 12 17 29 21 18 8 12 14 16 16 14
3 3 4 9 12 4 2 7 5 3 5 1 10 6 13 7 7 3 4 2 2 5 1 2 11 10 3 2 3 5 3 9 6 9 19 20 21 16 15 8 7 9 10 10 13
5 1 2 12 12 2 5 7 7 4 5 7 12 13 17 13 8 5 7 7 4 4 5 5 6 14 5 9 17 9 8 7 7 8 12 17 17 15 5 8 6 7 7 9 10
6 2 4 18 4 2 7 4 2 5 1 3 4 8 14 12 12 12 17 14 3 1 11 11 9 16 28 24 14 16 21 20 9 10 12 15 21 21 7 7 9 5 5 5 7
4 2 3 7 6 6 2 3 5 6 7 4 6 4 2 5 7 12 12 4 6 2 4 4 3 9 9 9 0 6 10 15 18 7 21 19 13 6 14 17 12 8 3 3 7
3 4 1 2 2 5 8 9 8 2 6 5 5 6 8 11 9 8 8 1 3 3 6 5 3 7 12 13 16 9 6 5 5 4 9 13 20 20 17 18 14 8 7 8 7
1 2 1 5 6 11 9 3 4 4 0 2 2 5 2 3 3 6 2 3 3 5 2 1 10 12 14 11 8 9 10 15 15 16 9 18 22 24 13 7 11 15 12 12 10
3 2 2 2 1 7 9 7 14 14 3 4 8 4 1 6 6 10 2 3 7 2 2 1 3 4 7 11 14 19 20 23 24 25 26 26 26 5 4 7 10 13 15 18 15
1 1 1 3 6 7 5 4 5 8 2 0 4 3 3 4 4 3 6 7 8 7 7 6 5 6 12 16 14 13 17 18 20 24 15 14 7 2 3 8 13 13 14 16 15
Wind_Direction
4 0 0 358 355 352 343 336 329 323 320 321 324 324 325 325 315 290 241 230 201 186 172 158 150 141 129 116 117 206 229 244 242 195 223 175 244 175 286 267 222 208 248 313 160
356 357 359 359 359 357 349 339 329 323 319 315 314 315 320 325 314 259 261 210 192 183 168 168 167 160 157 146 169 222 237 254 232 218 255 253 238 282 263 256 256 252 248 236 213
356 356 356 2 6 358 349 341 334 327 322 317 314 310 314 327 295 260 175 196 186 181 185 169 144 170 205 192 190 184 241 245 234 245 259 276 258 243 264 276 263 271 288 250 227
351 1 4 9 7 352 342 335 330 324 321 317 316 317 309 313 294 204 206 194 186 181 159 145 159 181 217 214 190 236 245 239 268 215 242 256 283 259 243 261 277 284 279 273 245
346 351 356 359 360 347 337 333 328 320 313 308 308 308 304 222 248 257 225 188 183 181 188 175 183 189 226 217 195 239 262 259 255 261 263 278 262 264 267 262 275 275 274 270 261
322 337 344 351 351 340 338 333 326 320 313 306 298 273 185 253 251 258 219 183 187 182 184 186 230 216 266 236 222 351 282 278 277 260 252 253 271 234 264 266 273 272 276 276 271
306 324 336 344 338 338 338 334 328 322 317 310 287 205 223 257 242 225 183 197 202 193 174 198 167 199 153 251 287 306 297 292 258 259 232 225 266 231 260 293 286 285 276 278 271
297 311 323 331 333 335 338 333 329 331 334 320 200 162 253 259 257 227 213 183 194 201 214 191 185 170 236 40 269 275 264 284 308 172 176 205 273 288 313 290 288 288 288 292 285
286 302 318 327 332 334 337 328 320 330 358 76 128 183 261 259 236 224 197 165 144 129 101 126 149 193 159 238 270 229 272 254 297 212 144 212 285 272 289 298 289 285 282 282 292
279 295 312 324 332 334 336 324 305 316 324 77 108 214 201 228 155 145 167 152 123 129 110 116 143 205 194 205 254 282 266 256 266 293 252 267 272 282 283 277 276 281 280 293 290
274 288 305 320 332 336 339 330 281 219 264 244 219 272 260 130 155 148 153 133 122 158 189 140 209 212 232 227 258 284 272 281 279 283 291 287 285 280 280 274 265 273 283 294 290
270 282 295 315 329 334 338 69 88 44 295 260 264 269 275 112 284 140 162 186 186 208 140 170 233 232 292 274 246 258 270 274 282 291 291 295 296 282 266 263 263 277 287 287 302
265 272 286 304 320 322 42 94 84 148 254 282 240 250 291 194 232 219 196 154 205 191 204 239 259 240 214 243 250 246 261 280 284 314 281 308 287 273 257 251 271 254 267 281 305
261 263 267 288 299 250 101 34 17 227 271 242 198 110 137 161 160 344 225 274 185 254 219 253 280 231 211 246 237 271 264 258 277 299 298 16 297 301 269 284 270 30 312 291 358
256 256 252 238 227 186 155 69 52 296 274 70 126 131 116 184 112 49 342 159 227 178 210 245 168 171 210 234 182 256 46 223 228 275 304 262 265 355 169 266 309 52 28 355 322
256 251 238 214 193 159 185 97 263 185 235 108 124 174 156 128 96 113 93 35 351 210 220 256 117 216 237 162 189 123 293 292 232 257 257 300 238 19 16 135 107 359 350 353 29
211 201 175 169 187 185 185 84 210 236 338 81 169 198 194 173 182 177 167 185 231 283 271 190 211 222 190 242 161 171 273 295 270 243 269 344 285 250 299 291 335 347 11 32 30
170 179 184 187 194 174 153 144 205 312 296 224 267 196 274 232 246 177 189 246 219 204 265 272 273 193 166 216 260 206 235 239 267 273 288 282 265 270 88 347 36 51 57 41 33
128 174 205 194 178 173 162 217 218 189 186 230 250 270 274 261 259 226 235 265 217 193 219 255 250 205 232 212 206 149 209 257 272 274 281 272 270 272 238 73 59 42 23 21 22
163 168 232 195 163 205 163 227 237 213 142 109 252 249 267 264 278 268 253 103 204 209 321 289 283 223 181 165 216 244 332 248 226 255 252 263 267 260 286 343 63 33 29 18 14
153 159 208 173 152 189 233 252 273 258 205 220 240 256 274 275 246 204 230 265 269 223 211 291 252 265 265 245 261 250 250 238 267 248 251 255 260 271 3 70 19 26 33 19 22
153 201 173 163 184 210 235 218 352 255 305 261 286 261 256 267 263 260 267 260 19 159 280 258 275 274 271 272 266 263 259 256 249 240 227 249 258 283 312 73 65 25 29 32 27
167 146 176 183 203 202 212 246 226 196 215 201 232 228 215 260 255 242 250 87 36 22 324 36 233 264 269 239 70 241 252 263 267 290 254 260 257 290 322 333 31 26 64 357 348
151 161 198 220 209 206 222 245 235 205 218 212 247 237 250 254 245 264 259 76 38 40 5 16 229 272 274 290 314 272 230 253 268 265 295 272 283 288 297 327 337 8 348 336 331
32 197 341 187 219 221 218 195 184 194 348 58 213 139 127 269 286 248 295 351 77 7 75 2 266 278 278 302 298 282 286 280 270 265 259 283 285 285 329 329 328 323 330 331 324
157 156 128 158 145 196 213 242 243 239 238 228 254 310 188 244 250 287 277 218 274 75 105 60 278 327 286 281 275 289 280 270 269 267 264 261 269 59 331 307 309 317 327 326 320
127 86 83 132 171 181 207 210 180 147 60 45 133 134 208 237 199 206 237 252 257 254 263 268 262 269 270 290 310 280 260 272 276 274 293 273 293 128 332 328 322 311 300 304 294